Time,TemperatureF,DewpointF,PressureIn,WindDirection,WindDirectionDegrees,WindSpeedMPH,WindSpeedGustMPH,Humidity,HourlyPrecipIn,Conditions,Clouds,dailyrainin,SoftwareType,DateUTC
2013-06-27 00:00:00,62.9,62.3,29.82,West,270,0.0,1.0,98,0.00,,---,0.00,VWS V14.01,2013-06-27 04:00:00,
2013-06-27 00:15:00,63.1,62.5,29.83,West,270,0.0,0.0,98,0.00,,---,0.00,VWS V14.01,2013-06-27 04:15:00,
2013-06-27 00:30:00,63.2,62.6,29.83,West,270,0.0,0.0,98,0.00,,---,0.00,VWS V14.01,2013-06-27 04:30:00,
2013-06-27 00:45:00,63.4,62.8,29.83,West,270,0.0,0.0,98,0.00,,---,0.00,VWS V14.01,2013-06-27 04:45:00,
2013-06-27 01:00:00,64.1,63.5,29.83,West,270,0.0,0.0,98,0.00,,---,0.00,VWS V14.01,2013-06-27 05:00:00,
2013-06-27 01:15:00,64.4,63.8,29.83,West,270,0.0,0.0,98,0.00,,---,0.00,VWS V14.01,2013-06-27 05:15:00,
2013-06-27 01:30:00,64.3,63.7,29.83,West,270,0.0,0.0,98,0.00,,---,0.00,VWS V14.01,2013-06-27 05:30:00,
2013-06-27 01:45:00,64.1,63.5,29.83,West,270,0.0,0.0,98,0.00,,---,0.00,VWS V14.01,2013-06-27 05:45:00,
2013-06-27 02:00:00,64.0,63.4,29.82,West,270,0.0,0.0,98,0.00,,---,0.00,VWS V14.01,2013-06-27 06:00:00,
2013-06-27 02:15:00,63.6,63.0,29.82,ENE,68,0.0,1.0,98,0.00,,---,0.00,VWS V14.01,2013-06-27 06:15:00,
2013-06-27 02:30:00,63.5,62.9,29.82,ENE,68,0.0,0.0,98,0.00,,---,0.00,VWS V14.01,2013-06-27 06:30:00,
2013-06-27 02:45:00,63.1,62.5,29.82,ENE,68,0.0,0.0,98,0.00,,---,0.00,VWS V14.01,2013-06-27 06:45:00,
2013-06-27 03:00:00,63.0,62.4,29.82,ENE,68,0.0,0.0,98,0.00,,---,0.00,VWS V14.01,2013-06-27 07:00:00,
2013-06-27 03:15:00,62.9,62.3,29.82,ENE,68,0.0,2.0,98,0.00,,---,0.00,VWS V14.01,2013-06-27 07:15:00,
2013-06-27 03:30:00,62.9,62.3,29.82,ENE,68,0.0,1.0,98,0.00,,---,0.00,VWS V14.01,2013-06-27 07:30:00,
2013-06-27 03:45:00,63.1,62.5,29.81,East,90,0.0,1.0,98,0.00,,---,0.00,VWS V14.01,2013-06-27 07:45:00,
2013-06-27 04:00:00,63.0,62.4,29.81,East,90,0.0,0.0,98,0.00,,---,0.00,VWS V14.01,2013-06-27 08:00:00,
2013-06-27 04:15:00,62.9,62.3,29.81,ENE,68,0.0,3.0,98,0.00,,---,0.00,VWS V14.01,2013-06-27 08:15:00,
2013-06-27 04:30:00,62.6,62.0,29.81,ENE,68,0.0,0.0,98,0.00,,---,0.00,VWS V14.01,2013-06-27 08:30:00,
2013-06-27 04:45:00,62.0,61.4,29.81,ENE,68,0.0,0.0,98,0.00,,---,0.00,VWS V14.01,2013-06-27 08:45:00,
2013-06-27 05:00:00,61.7,61.1,29.82,ENE,68,0.0,0.0,98,0.00,,---,0.00,VWS V14.01,2013-06-27 09:00:00,
2013-06-27 05:15:00,61.6,61.0,29.82,ENE,68,0.0,0.0,98,0.00,,---,0.00,VWS V14.01,2013-06-27 09:15:00,
2013-06-27 05:30:00,61.8,61.2,29.83,ENE,68,0.0,0.0,98,0.00,,---,0.00,VWS V14.01,2013-06-27 09:30:00,
2013-06-27 05:45:00,62.0,61.4,29.82,ESE,112,0.0,1.0,98,0.00,,---,0.00,VWS V14.01,2013-06-27 09:45:00,
2013-06-27 06:00:00,62.1,61.5,29.82,ESE,112,0.0,0.0,98,0.00,,---,0.00,VWS V14.01,2013-06-27 10:00:00,
2013-06-27 06:15:00,61.4,60.8,29.82,ESE,112,0.0,0.0,98,0.00,,---,0.00,VWS V14.01,2013-06-27 10:15:00,
2013-06-27 06:30:00,61.5,60.9,29.82,ESE,112,0.0,0.0,98,0.00,,---,0.00,VWS V14.01,2013-06-27 10:30:00,
2013-06-27 06:45:00,62.4,62.1,29.82,ESE,112,0.0,0.0,99,0.00,,---,0.00,VWS V14.01,2013-06-27 10:45:00,
2013-06-27 07:00:00,63.0,62.7,29.82,ESE,112,0.0,0.0,99,0.00,,---,0.00,VWS V14.01,2013-06-27 11:00:00,
2013-06-27 07:15:00,63.7,63.4,29.83,SSE,158,0.0,2.0,99,0.00,,---,0.00,VWS V14.01,2013-06-27 11:15:00,
2013-06-27 07:30:00,64.0,63.7,29.83,SSE,158,0.0,0.0,99,0.00,,---,0.00,VWS V14.01,2013-06-27 11:30:00,
2013-06-27 07:45:00,64.7,64.4,29.83,SSE,158,0.0,0.0,99,0.00,,---,0.00,VWS V14.01,2013-06-27 11:45:00,
2013-06-27 08:00:00,65.2,64.9,29.83,SSE,158,0.0,0.0,99,0.00,,---,0.00,VWS V14.01,2013-06-27 12:00:00,
2013-06-27 08:15:00,65.8,65.5,29.83,WSW,248,0.0,1.0,99,0.00,,---,0.00,VWS V14.01,2013-06-27 12:15:00,
2013-06-27 08:30:00,66.2,65.9,29.83,WSW,248,0.0,0.0,99,0.00,,---,0.00,VWS V14.01,2013-06-27 12:30:00,
2013-06-27 08:45:00,67.0,65.8,29.83,WSW,248,0.0,0.0,96,0.00,,---,0.00,VWS V14.01,2013-06-27 12:45:00,
2013-06-27 09:00:00,67.6,65.8,29.83,West,270,0.0,2.0,94,0.00,,---,0.00,VWS V14.01,2013-06-27 13:00:00,
2013-06-27 09:15:00,68.1,66.0,29.83,West,270,0.0,1.0,93,0.00,,---,0.00,VWS V14.01,2013-06-27 13:15:00,
2013-06-27 09:30:00,68.6,65.9,29.83,NW,315,0.0,1.0,91,0.00,,---,0.00,VWS V14.01,2013-06-27 13:30:00,
2013-06-27 09:45:00,69.3,65.9,29.83,NNW,338,0.0,2.0,89,0.00,,---,0.00,VWS V14.01,2013-06-27 13:45:00,
2013-06-27 10:00:00,70.8,67.4,29.83,West,270,0.0,3.0,89,0.00,,---,0.00,VWS V14.01,2013-06-27 14:00:00,
2013-06-27 10:15:00,73.3,68.2,29.82,North,0,1.0,4.0,84,0.00,,---,0.00,VWS V14.01,2013-06-27 14:15:00,
2013-06-27 10:30:00,72.9,67.8,29.82,West,270,0.0,3.0,84,0.00,,---,0.00,VWS V14.01,2013-06-27 14:30:00,
2013-06-27 10:45:00,73.4,68.6,29.82,NW,315,0.0,2.0,85,0.00,,---,0.00,VWS V14.01,2013-06-27 14:45:00,
2013-06-27 11:00:00,74.5,68.3,29.82,NW,315,0.0,3.0,81,0.00,,---,0.00,VWS V14.01,2013-06-27 15:00:00,
2013-06-27 11:15:00,76.2,69.6,29.81,WSW,248,0.0,3.0,80,0.00,,---,0.00,VWS V14.01,2013-06-27 15:15:00,
2013-06-27 11:30:00,76.2,69.6,29.82,WSW,248,1.0,3.0,80,0.00,,---,0.00,VWS V14.01,2013-06-27 15:30:00,
2013-06-27 11:45:00,77.4,68.9,29.81,WSW,248,0.0,3.0,75,0.00,,---,0.00,VWS V14.01,2013-06-27 15:45:00,
2013-06-27 12:00:00,77.8,70.0,29.81,WNW,292,1.0,5.0,77,0.00,,---,0.00,VWS V14.01,2013-06-27 16:00:00,
2013-06-27 12:15:00,77.8,70.8,29.81,SSE,158,1.0,5.0,79,0.00,,---,0.00,VWS V14.01,2013-06-27 16:15:00,
2013-06-27 12:30:00,77.2,70.2,29.80,SE,135,0.0,5.0,79,0.00,,---,0.00,VWS V14.01,2013-06-27 16:30:00,
2013-06-27 12:45:00,78.2,69.6,29.80,WNW,292,1.0,4.0,75,0.00,,---,0.00,VWS V14.01,2013-06-27 16:45:00,
2013-06-27 13:00:00,77.8,69.6,29.79,North,0,1.0,6.0,76,0.00,,---,0.00,VWS V14.01,2013-06-27 17:00:00,
2013-06-27 13:15:00,78.3,71.3,29.79,SSE,158,0.0,5.0,79,0.00,,---,0.00,VWS V14.01,2013-06-27 17:15:00,
2013-06-27 13:30:00,79.7,70.3,29.78,NE,45,1.0,6.0,73,0.00,,---,0.00,VWS V14.01,2013-06-27 17:30:00,
2013-06-27 13:45:00,80.5,70.2,29.77,SSW,202,0.0,5.0,71,0.00,,---,0.00,VWS V14.01,2013-06-27 17:45:00,
2013-06-27 14:00:00,80.3,71.3,29.77,NNW,338,0.0,3.0,74,0.00,,---,0.00,VWS V14.01,2013-06-27 18:00:00,
2013-06-27 14:15:00,80.6,70.8,29.77,SSW,202,0.0,3.0,72,0.00,,---,0.00,VWS V14.01,2013-06-27 18:15:00,
2013-06-27 14:30:00,81.7,72.6,29.77,SW,225,0.0,4.0,74,0.00,,---,0.00,VWS V14.01,2013-06-27 18:30:00,
2013-06-27 14:45:00,80.2,69.5,29.77,WNW,292,1.0,6.0,70,0.00,,---,0.00,VWS V14.01,2013-06-27 18:45:00,
2013-06-27 15:00:00,79.5,70.1,29.77,WSW,248,1.0,6.0,73,0.00,,---,0.00,VWS V14.01,2013-06-27 19:00:00,
2013-06-27 15:15:00,79.6,71.4,29.77,SSE,158,1.0,5.0,76,0.00,,---,0.00,VWS V14.01,2013-06-27 19:15:00,
2013-06-27 15:30:00,81.5,72.0,29.75,SSE,158,0.0,4.0,73,0.00,,---,0.00,VWS V14.01,2013-06-27 19:30:00,
2013-06-27 15:45:00,83.1,72.3,29.75,South,180,0.0,2.0,70,0.00,,---,0.00,VWS V14.01,2013-06-27 19:45:00,
2013-06-27 16:00:00,82.7,72.3,29.75,South,180,1.0,5.0,71,0.00,,---,0.00,VWS V14.01,2013-06-27 20:00:00,
2013-06-27 16:15:00,82.4,70.3,29.75,WNW,292,0.0,4.0,67,0.00,,---,0.00,VWS V14.01,2013-06-27 20:15:00,
2013-06-27 16:30:00,82.4,69.9,29.75,SSE,158,0.0,5.0,66,0.00,,---,0.00,VWS V14.01,2013-06-27 20:30:00,
2013-06-27 16:45:00,82.7,70.2,29.75,NW,315,0.0,5.0,66,0.00,,---,0.00,VWS V14.01,2013-06-27 20:45:00,
2013-06-27 17:00:00,82.3,72.8,29.74,West,270,0.0,3.0,73,0.00,,---,0.00,VWS V14.01,2013-06-27 21:00:00,
2013-06-27 17:15:00,80.6,70.8,29.74,WSW,248,0.0,4.0,72,0.00,,---,0.00,VWS V14.01,2013-06-27 21:15:00,
2013-06-27 17:30:00,80.1,69.9,29.74,South,180,0.0,3.0,71,0.00,,---,0.00,VWS V14.01,2013-06-27 21:30:00,
2013-06-27 17:45:00,78.8,70.2,29.75,South,180,0.0,3.0,75,0.00,,---,0.00,VWS V14.01,2013-06-27 21:45:00,
2013-06-27 18:00:00,77.6,68.3,29.75,South,180,1.0,4.0,73,0.00,,---,0.00,VWS V14.01,2013-06-27 22:00:00,
2013-06-27 18:15:00,77.5,69.7,29.75,South,180,0.0,2.0,77,0.00,,---,0.00,VWS V14.01,2013-06-27 22:15:00,
2013-06-27 18:30:00,77.8,69.2,29.75,SSE,158,0.0,3.0,75,0.00,,---,0.00,VWS V14.01,2013-06-27 22:30:00,
2013-06-27 18:45:00,76.7,69.3,29.75,SE,135,0.0,2.0,78,0.00,,---,0.00,VWS V14.01,2013-06-27 22:45:00,
2013-06-27 19:00:00,74.9,69.4,29.75,South,180,0.0,4.0,83,0.00,,---,0.00,VWS V14.01,2013-06-27 23:00:00,
2013-06-27 19:15:00,73.4,68.6,29.75,South,180,0.0,0.0,85,0.00,,---,0.00,VWS V14.01,2013-06-27 23:15:00,
2013-06-27 19:30:00,72.2,67.4,29.75,South,180,0.0,0.0,85,0.00,,---,0.00,VWS V14.01,2013-06-27 23:30:00,
2013-06-27 19:45:00,71.6,67.5,29.75,South,180,0.0,0.0,87,0.00,,---,0.00,VWS V14.01,2013-06-27 23:45:00,
2013-06-27 20:00:00,70.8,67.4,29.75,South,180,0.0,0.0,89,0.00,,---,0.00,VWS V14.01,2013-06-28 00:00:00,
2013-06-27 20:15:00,70.0,66.6,29.75,South,180,0.0,0.0,89,0.00,,---,0.00,VWS V14.01,2013-06-28 00:15:00,
2013-06-27 20:30:00,69.5,66.4,29.76,South,180,0.0,0.0,90,0.00,,---,0.00,VWS V14.01,2013-06-28 00:30:00,
2013-06-27 20:45:00,69.0,65.9,29.77,SE,135,0.0,1.0,90,0.00,,---,0.00,VWS V14.01,2013-06-28 00:45:00,
2013-06-27 21:00:00,68.6,65.9,29.77,SE,135,0.0,0.0,91,0.00,,---,0.00,VWS V14.01,2013-06-28 01:00:00,
2013-06-27 21:15:00,68.5,65.5,29.77,NE,45,0.0,2.0,90,0.00,,---,0.00,VWS V14.01,2013-06-28 01:15:00,
2013-06-27 21:30:00,68.3,65.6,29.77,NE,45,0.0,0.0,91,0.00,,---,0.00,VWS V14.01,2013-06-28 01:30:00,
2013-06-27 21:45:00,67.8,65.1,29.77,NE,45,0.0,1.0,91,0.00,,---,0.00,VWS V14.01,2013-06-28 01:45:00,
2013-06-27 22:00:00,67.3,64.6,29.77,NE,45,0.0,1.0,91,0.00,,---,0.00,VWS V14.01,2013-06-28 02:00:00,
2013-06-27 22:15:00,66.8,64.4,29.78,NE,45,0.0,0.0,92,0.00,,---,0.00,VWS V14.01,2013-06-28 02:15:00,
2013-06-27 22:30:00,66.8,64.4,29.77,ENE,68,0.0,2.0,92,0.00,,---,0.00,VWS V14.01,2013-06-28 02:30:00,
2013-06-27 22:45:00,66.5,64.1,29.77,ENE,68,0.0,1.0,92,0.00,,---,0.00,VWS V14.01,2013-06-28 02:45:00,
2013-06-27 23:00:00,66.3,64.2,29.77,ENE,68,0.0,0.0,93,0.00,,---,0.00,VWS V14.01,2013-06-28 03:00:00,
2013-06-27 23:15:00,66.3,64.2,29.76,ENE,68,0.0,0.0,93,0.00,,---,0.00,VWS V14.01,2013-06-28 03:15:00,
2013-06-27 23:30:00,66.1,64.3,29.76,ENE,68,0.0,0.0,94,0.00,,---,0.00,VWS V14.01,2013-06-28 03:30:00,
2013-06-27 23:45:00,65.8,64.3,29.76,SE,135,0.0,1.0,95,0.00,,---,0.00,VWS V14.01,2013-06-28 03:45:00,